"Pseudo-MPEC" for gb00854

Created 2026 Sep 3 19:35:10 UT using Find_Orb

Click here for an explanation of pseudo-MPECs

 
 Astrometry: 
     gb00854*KC2026 09 02.73492 21 36 27.48 +22 08 02.0    ~92IK 19.2 GXNEOCPL51
     gb00854 KC2026 09 02.73604 21 36 29.92 +22 08 01.4    ~92IK 18.6 GXNEOCPL51
     gb00854 KC2026 09 02.73716 21 36 32.36 +22 08 01.0    ~92IK 18.9 GXNEOCPL51
     gb00854 KC2026 09 02.76037 21 37 22.66 +22 07 59.5    ~92Io 18.1 GXNEOCPL51
     gb00854 KC2026 09 02.76206 21 37 26.29 +22 07 59.1    ~92Io 18.0 GXNEOCPL51
     gb00854 KC2026 09 02.76374 21 37 29.95 +22 07 59.0    ~92Io 17.9 GXNEOCPL51
     gb00854 0B2026 09 02.80724521 39 09.814+22 07 24.68   ~92No       WNEOCP204
     gb00854 KB2026 09 02.81129321 39 11.477+22 07 37.99   ~92K5 18.3 GXNEOCPL76
     gb00854 KB2026 09 02.81493121 39 19.394+22 07 36.26   ~92K5 18.4 GXNEOCPL76
     gb00854 0B2026 09 02.81713921 39 31.518+22 07 22.65   ~92No 18.2 GWNEOCP204
     gb00854 KB2026 09 02.81856821 39 27.293+22 07 34.54   ~92K5 18.3 GXNEOCPL76
     gb00854 KB2026 09 02.82220621 39 35.213+22 07 32.95   ~92K5 17.8 GXNEOCPL76
     gb00854 KC2026 09 02.82246421 39 45.54 +22 07 21.7    ~92KZ 18.1 GXNEOCP958
     gb00854 KB2026 09 02.82584321 39 43.114+22 07 31.12   ~92K5 18.4 GXNEOCPL76
     gb00854 0B2026 09 02.82702221 39 53.188+22 07 20.19   ~92No       WNEOCP204
     gb00854 KC2026 09 02.82845521 39 58.72 +22 07 20.7    ~92KZ 18.0 GXNEOCP958
     gb00854 KB2026 09 02.82996521 39 59.114+22 07 32.66   ~935o 18.8 GWNEOCPL47
     gb00854 KC2026 09 02.83112421 40 02.132+22 07 20.93   ~92KK 18.0 GWNEOCP203
     gb00854 KC2026 09 02.83173621 40 00.322+22 07 18.62   ~92LK 17.6 RZNEOCPM38
     gb00854 KC2026 09 02.83456621 40 12.13 +22 07 19.2    ~92KZ 17.8 GXNEOCP958
     gb00854 KC2026 09 02.83607521 40 13.038+22 07 19.32   ~92KK 18.1 GWNEOCP203
     gb00854 KB2026 09 02.83655121 40 13.505+22 07 30.32   ~935o 18.5 GWNEOCPL47
     gb00854 KC2026 09 02.83941021 40 17.100+22 07 14.27   ~92LK 17.3 RZNEOCPM38
     gb00854 KC2026 09 02.84161821 40 25.190+22 07 17.50   ~92Ko 18.6 GWNEOCP203
     gb00854 KB2026 09 02.84634 21 40 31.89 +22 07 17.7    ~92Ko 17.8 GXNEOCPL04
     gb00854 KC2026 09 02.84881921 40 40.994+22 07 14.74   ~92Ko 18.2 GWNEOCP203
     gb00854 KB2026 09 02.85026521 40 43.020+22 07 15.31   ~92Ko 18.1 GXNEOCP595
     gb00854 KB2026 09 02.85333321 40 49.752+22 07 14.16   ~92Ko 18.2 GXNEOCP595
     gb00854 KB2026 09 02.85352 21 40 47.59 +22 07 14.2    ~92Ko 18.2 GXNEOCPL04
     gb00854 KB2026 09 02.85638121 40 56.412+22 07 12.83   ~92Ko 18.4 GXNEOCP595
     gb00854 KB2026 09 02.87193421 41 31.636+22 07 12.50   ~92LK 17.18GXNEOCP126
     gb00854 KB2026 09 02.87341821 41 34.886+22 07 11.49   ~92LK 17.86GXNEOCP126
     gb00854 KB2026 09 02.87486721 41 38.056+22 07 10.54   ~92LK 17.29GXNEOCP126
     gb00854 KB2026 09 02.88356321 41 59.59 +22 06 59.3    ~92LZ 18.1 GXNEOCPI93
     gb00854 KB2026 09 02.88511221 42 03.00 +22 06 58.6    ~92LZ 18.2 GXNEOCPI93
     gb00854 KB2026 09 02.88665921 42 06.40 +22 06 57.7    ~92LZ 18.0 GXNEOCPI93
     gb00854 KB2026 09 02.88815821 42 09.71 +22 06 56.9    ~92LZ 18.0 GXNEOCPI93
     gb00854 KB2026 09 02.92327521 43 27.713+22 07 10.34   ~935K 18.5 GXNEOCPR63
     gb00854 KB2026 09 02.95644721 44 40.706+22 06 46.08   ~935K 17.7 GXNEOCPR63
     gb00854 KB2026 09 02.95675 21 44 39.05 +22 06 16.1    ~92No 17.7 GXNEOCPM54
     gb00854 KB2026 09 02.96014 21 44 46.55 +22 06 12.8    ~92No 17.9 GXNEOCPM54
     gb00854 KB2026 09 02.96348 21 44 53.96 +22 06 09.7    ~92No 17.8 GXNEOCPM54
     gb00854 KB2026 09 03.00667 21 46 26.83 +22 04 56.7    ~930o 18.0 GXNEOCPL04
     gb00854 KB2026 09 03.01327 21 46 41.77 +22 04 48.3    ~930o 18.1 GXNEOCPL04
     gb00854 :C2026 09 03.01806 21 47 02.01 +22 06 36.8    ~9315 18.1 VqNEOCP950
     gb00854 KB2026 09 03.01988 21 46 56.69 +22 04 39.6    ~930o 17.9 GXNEOCPL04
     gb00854 0B2026 09 03.02625821 47 09.180+22 10 13.83   ~93Ao       WNEOCPM21
     gb00854 :C2026 09 03.02677 21 47 21.30 +22 06 27.7    ~9315 18.4 VqNEOCP950
     gb00854 0B2026 09 03.03095421 47 19.742+22 10 06.60   ~93Ao 18.3 GWNEOCPM21
     gb00854 0B2026 09 03.03572321 47 30.430+22 10 00.35   ~93Ao       WNEOCPM21
     gb00854 KB2026 09 03.05285921 48 39.614+22 04 55.88   ~931Z 18.6 VZNEOCPW05
     gb00854 KB2026 09 03.05450221 48 43.322+22 04 55.31   ~931Z 18.5 VZNEOCPW05
     gb00854 KC2026 09 03.09007521 50 03.15 +22 04 02.6    ~932Z 18.1 GVNEOCPH21
     gb00854 KC2026 09 03.09136021 50 06.07 +22 04 01.7    ~932Z 18.0 GVNEOCPH21
     gb00854 KC2026 09 03.09264721 50 09.01 +22 04 00.5    ~932Z 18.0 GVNEOCPH21
     gb00854 KC2026 09 03.09393221 50 11.93 +22 03 59.6    ~932Z 17.9 GVNEOCPH21
     gb00854  C2026 09 03.36369522 00 37.183+21 57 51.65   ~939Z 17.9 GWNEOCPH01
     gb00854  C2026 09 03.36689822 00 44.689+21 57 44.68   ~939Z 18.0 GWNEOCPH01
     gb00854  C2026 09 03.37763922 01 09.987+21 57 20.97   ~939Z 17.9 GWNEOCPH01
     gb00854  C2026 09 03.38831722 01 35.187+21 56 56.67   ~939Z 18.2 GWNEOCPH01
     gb00854 KB2026 09 03.54479322 08 25.625+21 51 07.67   ~93GZ 18.4 GVNEOCPP13
     gb00854 KB2026 09 03.60464522 10 49.762+21 49 01.02   ~93GZ 18.3 GVNEOCPP13
     gb00854 KB2026 09 03.61398122 11 12.240+21 48 38.99   ~93GZ 18.1 GVNEOCPP13
     gb00854 KB2026 09 03.62443322 11 37.399+21 48 13.97   ~93GZ 18.4 GVNEOCPP13
     gb00854 KB2026 09 03.75754 22 17 21.74 +21 41 26.8    ~93J5 18.6 GXNEOCPM75
     gb00854 KB2026 09 03.76284 22 17 34.88 +21 41 12.6    ~93J5 18.6 GXNEOCPM75
     gb00854 KB2026 09 03.76482 22 17 42.51 +21 40 53.6    ~93J5 18.2 GXNEOCPM45
     gb00854 KB2026 09 03.76804 22 17 50.53 +21 40 45.3    ~93J5 18.3 GXNEOCPM45
     gb00854 KB2026 09 03.76806 22 17 47.79 +21 40 59.3    ~93J5 18.3 GXNEOCPM75
     gb00854 KB2026 09 03.77126 22 17 58.55 +21 40 37.1    ~93J5 18.3 GXNEOCPM45
     gb00854 KB2026 09 03.78341222 18 30.92 +21 39 52.7    ~93JK 18.3 VZNEOCP106
     gb00854 KB2026 09 03.78465822 18 34.00 +21 39 48.9    ~93JK 18.0 VZNEOCP106
     gb00854 KB2026 09 03.78605322 18 37.48 +21 39 45.7    ~93JK 18.1 VZNEOCP106
     gb00854 KB2026 09 03.78744822 18 40.99 +21 39 42.1    ~93JK 18.3 VZNEOCP106
     gb00854 KC2026 09 03.78953 22 18 47.35 +21 40 01.7    ~93JZ 18.4 VZNEOCPC82
     gb00854 KC2026 09 03.80602 22 19 28.51 +21 39 20.3    ~93JZ 18.7 VZNEOCPC82

Station data:
(106) Črni Vrh  (N45.945905 E14.071100)  Slovenia.  Observer J. Skvarč. 0.6-m
   f/3.3 Deltagraph + CCD.
(126) Monte Viseggi  (N44.132565 E9.790150)  Italy.
   Observers L. Sannino, A. Mancuso, S. Mercanti, D. Agnetti. Measurers L.
   Sannino, A. Mancuso. 0.41-m f/5.3 reflector + CCD.
(203) GiaGa Observatory  (N45.541442 E8.995480)  Italy.  Observers S. Foglia,
   G. Galli. Measurer G. Galli. 0.36-m f/5.76 Schmidt-Cassegrain + CCD.
(204) Schiaparelli Observatory  (N45.868292 E8.769720)  Italy.  Observer L.
   Buzzi. 0.84-m f/3.5 reflector + CCD.
(595) Farra d'Isonzo  (N45.915731 E13.525780)  Italy.  Observers S. Aschi, E.
   Pettarin, G. Panterotto. Measurers S. Aschi, E. Pettarin. 0.40-m f/5.15
   reflector + CCD.
(950) La Palma  (N28.760220 W17.882400)  Canary Islands (Spain).  Observers
   O. Vaduvescu, R. Ashley, P. Massana, C. Celma, M. Monelli, M. Rodriguez,
   M. Rodriguez-Alarcon. Measurers C. Boldea, O. Vaduvescu. 2.5-m f/3.3
   reflector + CCD.
(958) Observatoire de Dax  (N43.693381 W1.030530)  France.  Observer P.
   Dupouy. 0.32-m Schmidt-Cassegrain.
(C82) Osservatorio Astronomico Nastro Verde, Sorrento  (N40.618774
   E14.357590)  Italy.  Observer N. Ruocco. 0.35-m f/6.3 Schmidt-Cassegrain +
   CCD.
(H01) Magdalena Ridge Observatory, Socorro  (N33.984833 W107.189333)  US/New
   Mexico.  Observers W. H. Ryan, E. V. Ryan. Measurer W. H. Ryan. 2.4-m
   f/8.9 reflector + CCD.
(H21) Astronomical Research Observatory, Westfield  (N39.483054 W87.968270)
   US/Illinois.  Observer R. Holmes. Measurers S. Foglia, L. Buzzi, T.
   Linder, R. Holmes. 0.40-m f/5.32 astrograph + CCD.
(I93) St Pardon de Conques  (N44.558670 W0.202960)  France.  Observers F.
   Losse, W. D'Anna. Measurer F. Losse. 0.40-m f/3.7 reflector + CCD.
(L04) ROASTERR-1 Observatory, Cluj-Napoca  (N46.820952 E23.596400)  Romania.
   Observer L. Hudin. 0.1-m f/9 refractor + CCD.
(L47) Osservatorio Astronomico, Piobbico  (N43.585893 E12.507110)  Italy.
   Observers A. Teseo, A. Annamelia. 0.20-m f/6.3 Schmidt-Cassegrain + CCD.
(L51) MARGO, Nauchnij  (N44.729397 E34.016400)  Ukraine.  Observer G. Borisov.
    0.4-m f/2.3 astrograph + CCD.
(L76) Nomad Observatory, Kochevanchik  (N46.976193 E39.651610)  Russia.
   Observer E. Romas. 0.2-m f/5 reflector + CCD.
(M21) Schiaparelli Southern Observatory, Hakos  (S23.236549 E16.361440)
   Namibia.  Observers A. Aletti, F. Bellini, L. Buzzi, G. Galli. Measurer L.
   Buzzi. 0.36-m f/8.4 reflector + CCD.
(M38) Harsona Observatory, Nyiregyhaza  (N47.945815 E21.767190)  Hungary.
   Observer T. Elek. 0.20-m f/4 reflector + CCD.
(M45) Starhopper Observatory, Sfantu Gheorghe  (N45.865494 E25.768890)
   Romania.  Observer F. Ursache. 0.41-m f/7.5 reflector + CMO.
(M54) Observatoire Albireo de Biot  (N43.617354 E7.077810)  France.
   Observers J.-M. Mari, C. Jasicki. Measurer J.-M. Mari. 0.25-m f/4.5
   reflector + CMO.
(M75) Online observatory, Peschany  (N45.742938 E39.511550)  Russia.
   Observer A. V. Skachedub. 0.28-m f/2.2 reflector + CMO.
(P13) Baihuashan Observatory, Beijing  (N39.837554 E115.573330)  China.
   Observers Z. Wang, B. Liu. Measurer Z. Wang. 0.28-m f/2.2 reflector + CMO.
(R63) Observatorio Sureste Estelar, Fuente Alamo  (N37.717184 W1.220110)
   Spain.
(W05) Tree Gate Farm Observatory, Starkville  (N33.347635 W88.732810)
   US/Mississippi.  Observer J.-F. Gout. 0.5-m f/1.5 reflector + CMOS.

Orbital elements:  gb00854
   Perihelion 2026 Sep 8.028629 +/- 0.00344 TT =  0:41:13.5 (JD 2461291.528629)
Epoch 2026 Sep  3.0 TT = JDT 2461286.5   Earth MOID: 0.0237      AutoNEOCP
M 358.782830428 +/- 0.0016          (J2000 ecliptic)
n   0.242048006 +/- 0.00034         Peri.  179.168212 +/- 0.0049
a   2.549969830 +/- 0.00239         Node   166.846290 +/- 0.0008
e   0.59567142 +/- 0.000374         Incl.    7.453651 +/- 0.0037
P   4.07195                H 24.68  G  0.15   U  7.4
q 1.031025669 +/- 1.12e-5    Q 4.068913991 +/- 0.00476
From 76 observations 2026 Sept. 2-3 (25.7 hr); mean residual 0".25
Residuals in arcseconds: 
260902 L51  .38-  .36+    260902 595  .09-  .16-    260903 H21  .13+  .02-    
260902 L51  .21-  .21-    260902 595  .10+  .02-    260903 H21  .06+  .09+    
260902 L51  .03-  .57-    260902 L04  .21+  .11+    260903 H21  .21+  .09-    
260902 L51  .00   .09-    260902 595  .13-  .03-    260903 H21  .14+  .04+    
260902 L51  .44-  .25-    260902 126  .41+  .25+    260903 H01  .02+  .07-    
260902 L51  .17-  .10-    260902 126  .37+  .04-    260903 H01  .20-  .08-    
260902 204  .08-  .06+    260902 126  .28+  .28-    260903 H01  .08+  .04-    
260902 L76  .09-  .12+    260902 I93  .08-  .16+    260903 H01  .12-  .12-    
260902 L76  .10+  .01-    260902 I93  .06-  .18+    260903 P13  .00   .06+    
260902 204  .01-  .04+    260902 I93  .12-  .01+    260903 P13  .08+  .25+    
260902 L76  .02+  .06-    260902 I93  .04+  .07-    260903 P13  .03-  .11-    
260902 L76  .17+  .08+    260902 R63  .13-  .09-    260903 P13  .39-  .24-    
260902 958  .59+  .17+    260902 R63  .26+  .12-    260903 M75  .39-  .13+    
260902 L76  .03+  .05+    260902 M54  .23+  .29+    260903 M75  .10-  .42-    
260902 204  .02-  .01+    260902 M54  .14+  .08+    260903 M45  .24-  .12+    
260902 958  .49+  .29+    260902 M54  .28+  .08+    260903 M45  .25-  .06-    
260902 L47  .47-  .18-    260903 L04  .14-  .06+    260903 M75  .22-  .12-    
260902 203  .74-  .20+    260903 L04  .28+  .16+    260903 M45  .24-  .09-    
260902 M38  .15+  .72+    260903 950  .16-  .12+    260903 106  .47+  .17+    
260902 958  .03-  .08+    260903 L04  .33-  .17+    260903 106  .07-  .46-    
260902 203  .00   .06+    260903 M21  .45-  .07+    260903 106  .23-  .10-    
260902 L47  .57-  .47-    260903 950  .10-  .06+    260903 106  .04+  .14-    
260902 M38  .18+  .48-    260903 M21  .11+  .53-    260903 C82  .36+  .10-    
260902 203  .02+  .03+    260903 M21  .12-  .08+    260903 C82  .86+  .92+    
260902 L04  .12+  .08+    260903 W05  .21+  .19-    
260902 203  .26+  .21-    260903 W05  .28-  .19+    

Ephemerides (geocentric):
Date (UTC) HH   RA             Dec           delta  r     elong  mag " sig PA
---- --------  ------------   ------------  ------ ------ -----  --- --------
2026 09 03 20  22 20 25.633   +21 40 07.91  .02743 1.0325 150.0 18.2 .137 121
2026 09 03 21  22 22 12.912   +21 37 56.56  .02737 1.0325 150.1 18.2 .159 117
2026 09 03 22  22 24 00.604   +21 35 40.18  .02731 1.0324 150.3 18.2 .183 114
2026 09 03 23  22 25 48.696   +21 33 18.72  .02725 1.0324 150.4 18.2 .210 112
2026 09 04 00  22 27 37.177   +21 30 52.16  .02720 1.0324 150.6 18.2 .239 110
2026 09 04 01  22 29 26.037   +21 28 20.48  .02714 1.0323 150.7 18.2 .270 109
2026 09 04 02  22 31 15.262   +21 25 43.63  .02709 1.0323 150.8 18.2 .303 107
2026 09 04 03  22 33 04.841   +21 23 01.59  .02704 1.0323 150.9 18.2 .338 106
2026 09 04 04  22 34 54.760   +21 20 14.35  .02699 1.0323 151.1 18.2 .375 105
2026 09 04 05  22 36 45.007   +21 17 21.87  .02694 1.0322 151.2 18.1 .414 105
2026 09 04 06  22 38 35.570   +21 14 24.14  .02689 1.0322 151.3 18.1 .455 104
2026 09 04 07  22 40 26.433   +21 11 21.16  .02685 1.0322 151.4 18.1 .498 104
2026 09 04 08  22 42 17.585   +21 08 12.89  .02681 1.0322 151.5 18.1 .543 103
2026 09 04 09  22 44 09.012   +21 04 59.34  .02676 1.0321 151.6 18.1 .590 103
2026 09 04 10  22 46 00.698   +21 01 40.49  .02672 1.0321 151.7 18.1 .639 103
2026 09 04 11  22 47 52.631   +20 58 16.35  .02668 1.0321 151.8 18.1 .690 102
2026 09 04 12  22 49 44.795   +20 54 46.90  .02665 1.0321 151.9 18.1 .743 102
2026 09 04 13  22 51 37.177   +20 51 12.16  .02661 1.0320 152.0 18.1 .798 102
2026 09 04 14  22 53 29.761   +20 47 32.12  .02658 1.0320 152.0 18.1 .854 102
2026 09 04 15  22 55 22.532   +20 43 46.80  .02654 1.0320 152.1 18.1 .913 102
2026 09 04 16  22 57 15.476   +20 39 56.20  .02651 1.0320 152.2 18.1 .974 102
2026 09 04 17  22 59 08.578   +20 36 00.33  .02648 1.0319 152.2 18.1 1.04 102
2026 09 04 18  23 01 01.821   +20 31 59.23  .02646 1.0319 152.3 18.1 1.10 102
2026 09 04 19  23 02 55.191   +20 27 52.89  .02643 1.0319 152.3 18.1 1.17 102
2026 09 04 20  23 04 48.671   +20 23 41.36  .02641 1.0319 152.4 18.1 1.24 102
2026 09 04 21  23 06 42.248   +20 19 24.64  .02638 1.0318 152.4 18.1 1.31 102
2026 09 04 22  23 08 35.903   +20 15 02.78  .02636 1.0318 152.4 18.1 1.38 102
2026 09 04 23  23 10 29.623   +20 10 35.81  .02634 1.0318 152.5 18.1 1.45 102
2026 09 05 00  23 12 23.391   +20 06 03.75  .02633 1.0318 152.5 18.1 1.53 102
2026 09 05 01  23 14 17.191   +20 01 26.65  .02631 1.0318 152.5 18.1 1.61 102
2026 09 05 02  23 16 11.007   +19 56 44.55  .02630 1.0317 152.5 18.1 1.69 102
2026 09 05 03  23 18 04.823   +19 51 57.50  .02628 1.0317 152.5 18.1 1.77 102
2026 09 05 04  23 19 58.624   +19 47 05.54  .02627 1.0317 152.5 18.1 1.85 102
2026 09 05 05  23 21 52.394   +19 42 08.72  .02626 1.0317 152.5 18.1 1.94 102
2026 09 05 06  23 23 46.116   +19 37 07.09  .02625 1.0317 152.5 18.1 2.02 102
2026 09 05 07  23 25 39.775   +19 32 00.71  .02625 1.0316 152.5 18.1 2.11 102
2026 09 05 08  23 27 33.355   +19 26 49.65  .02624 1.0316 152.5 18.1 2.20 102
2026 09 05 09  23 29 26.840   +19 21 33.96  .02624 1.0316 152.4 18.1 2.29 102
2026 09 05 10  23 31 20.215   +19 16 13.70  .02624 1.0316 152.4 18.1 2.38 103
2026 09 05 11  23 33 13.464   +19 10 48.94  .02624 1.0316 152.4 18.1 2.48 103
2026 09 05 12  23 35 06.572   +19 05 19.76  .02624 1.0316 152.3 18.1 2.57 103
2026 09 05 13  23 36 59.523   +18 59 46.22  .02625 1.0315 152.3 18.1 2.67 103
2026 09 05 14  23 38 52.302   +18 54 08.40  .02625 1.0315 152.2 18.1 2.77 103
2026 09 05 15  23 40 44.895   +18 48 26.38  .02626 1.0315 152.1 18.1 2.87 103
2026 09 05 16  23 42 37.285   +18 42 40.23  .02627 1.0315 152.1 18.1 2.97 103
2026 09 05 17  23 44 29.459   +18 36 50.03  .02628 1.0315 152.0 18.1 3.07 103
2026 09 05 18  23 46 21.402   +18 30 55.88  .02629 1.0315 151.9 18.1 3.17 103
2026 09 05 19  23 48 13.099   +18 24 57.84  .02631 1.0314 151.8 18.1 3.28 103